Погода Ванжиль-Кынак

Погода Ванжиль-Кынак : погода сейчас, прогноз погоды и архив. Всё, что Вы хотите узнать о погоде Ванжиль-Кынак!

Хотите узнать прогноз погоды Ванжиль-Кынак? Тогда Вам сюда: Погода Ванжиль-Кынак

Поиск расширенной информации на нашем сайте:

Другие новости

Новости СМИ2

Главная страница сайта

Новости сайта

03.07.2017

Напоминаем, что на нашем специализированном сайте Метеоцентр.Азия вы можете получить высокодетализированные автоматические прогнозы погоды по пунктам России, СНГ и мира в авиационном формате (включающие направление и скорость ветра, видимость, явления погоды, количество и форму облачности, нижнюю и верхнюю границу облачности).


Погода Ванжиль-Кынак - сегодня

Время (UTC), дата Ветер
(°,м/с) 
Видим.   Явления Облачность Т
(°С)
Тd
(°С)
f(%) Тe
(°С)
Pmin
(гПа)
dP
(гПа)
Po
(мм)
O2
(г/м3)
Тmin Tmax R s Состояние
почвы
15 09.12.17 100 (В) 20000 м    3/0 верхняя 
[Ci sp]
-18.8 -20.7 85 -19  1028.9  -1.1  761  331           
18 09.12.17 тихо ()   20000 м    ясно 
-19.6 -21.5 85 -20  1028  -0.9  761  332           
21 09.12.17 100 (В) 20000 м    ясно 
-16.6 -17.9 90 -17  1026.1  -1.7  759  327           
00 10.12.17 080 (В) 20000 м    4/0 средняя 
[Ac trans]
-16.4 -17.7 90 -17  1025.7  -0.4  759  327  -19.7      38  равномерный
сухой снег
100% 
03 10.12.17 090 (В) 10 км    1/0 верхняя 
[Ci fib]
-15.2 -16.5 90 -15  1024.2  -1.4  758  325           
06 10.12.17 080 (В) 10 км    8/0 верхняя 
[Ci sp]
-15.4 -16.7 90 -15  1024.6  0.4  758  325           
09 10.12.17 130 (ЮВ) 10 км    9/0 верхняя 
[Cs]
-12.4 -13.7 90 -12  1024.2  -0.3  758  321           
12 10.12.17 120 (ЮВ) 20000 м    3/0 средняя 
[Ac trans]
-13.6 -14.9 90 -14  1024  -0.2  758  323    -12.2       
15 10.12.17 140 (ЮВ) 20000 м    10/0 средняя 
[Ac und]
-11.4 -12.7 90 -11  1025  1.1  759  320           
18 10.12.17 130 (ЮВ) 20000 м    10/0 средняя 
[Ac und]
-11.2 -12.5 90 -11  1025.3  0.3  759  320           
21 10.12.17 120 (ЮВ) 20000 м    10/0 средняя 
[Ac und]
-10.9 -12.2 90 -11  1025  -0.3  759  320           
00 11.12.17 180 (Ю) 4000 м  слаб. ливневой снег  10/10 300 м кучево-дожд. 
[Cb cap]
-10.8 -12.1 90 -11  1025.5  0.5  759  320  -15.3    0.0  38  равномерный
сухой снег
100% 
03 11.12.17 140 (ЮВ) 4000 м  слаб. ливневой снег  10/10 300 м кучево-дожд. 
[Cb cap]
-10.6 -11.9 90 -10  1025.8  0.3  759  320           
06 11.12.17 130 (ЮВ) 4000 м  снежные зёрна{ливн. осадки}  10/10 300 м 
[St]
-10 -10.6 95 -12  1026.1  0.4  760  319           
09 11.12.17 120 (ЮВ) 4000 м  слаб. снег  10/10 600 м 
[Sc]
-9.4 -10.6 91 -9  1026.8  0.7  760  318           
12 11.12.17 тихо ()   4000 м  слаб. снег  10/0 средняя 
[As op]
-9.4 -11 88 -9  1027.7  0.9  761  319    -9.2  0.9     
15 11.12.17 тихо ()   4000 м  слаб. снег  10/0 средняя 
[As op]
-10.1 -10.7 95 -10  1027.7  761  319           
18 11.12.17 тихо ()   4000 м  слаб. снег  10/0 средняя 
[As op]
-10.8 -11.4 95 -11  1028  0.2  761  320           
21 11.12.17 тихо ()   4000 м  слаб. снег  10/0 средняя 
[As op]
-10 -10.6 95 -10  1027.9  761  319           
00 12.12.17 тихо ()   4000 м  слаб. снег  10/0 средняя 
[As trans]
-10.2 -11.5 90 -10  1028.6  0.3  761  320  -11.3    0.7  38  равномерный
сухой снег
100% 
03 12.12.17 тихо ()   10 км  {снег}  3/0 верхняя 
[Cs]
-17.7 -19.6 85 -18  1029.9  1.2  762  330  -17.7         
06 12.12.17 тихо ()   10 км  {снег}  10/0 средняя, верхняя 
[Ac trans|Cs]
-16.6 -17.9 90 -17  1030.4  0.5  763  329           
09 12.12.17 290 (З) 10 км  в посл. час ливневой снег  10/8 300 м кучево-дожд., средняя 
[Cb cap|Ac und]
-16.2 -18.1 85 -19  1030.8  0.4  763  328           
12 12.12.17 270 (З) 4000 м  слаб. ливневой снег  10/8 300 м кучево-дожд., верхняя 
[Cb cap|Ci sp]
-15.6 -16.9 90 -16  1031.1  0.4  763  328    -15.2  0.9     
15 12.12.17 250 (З) 4000 м  слаб. ливневой снег  10/10 300 м кучево-дожд. 
[Cb cap]
-15.3 -16.6 90 -15  1032.1  764  328           
Время (UTC), дата Ветер
(°,м/с) 
Видим.   Явления Облачность Т
(°С)
Тd
(°С)
f(%) Тe
(°С)
Pmin
(гПа)
dP
(гПа)
Po
(мм)
O2
(г/м3)
Тmin Tmax R s Состояние
почвы

Для получения пояснительной информации подведите курсор к названию столбца.

ПОГОДА Ванжиль-Кынак - архив

Всё, что Вы хотите узнать о погоде Ванжиль-Кынак - удобно и подробно!

Выберите нужную дату (начиная с 1 января 2015* года) и нажмите кнопку "Найти".
Будут отображены архивные сводки погоды по пункту Ванжиль-Кынак, начиная с указанной даты.


Отображать данные в формате CSV (для использования в таблицах Excel)


Внимание! Наш архив погоды предназначен исключительно для личного некоммерческого использования в познавательных целях. Если Вам необходимы официальные справки о состоянии погоды (для производственных, юридических, коммерческих и т.п. целей), обращайтесь в органы Росгидромета.

*Примечание: данная дата относится к архиву по метеостанциям СССР (Россия, СНГ, Балтия).
Архив по метеостанциям Зарубежной Европы и Азии (кроме Китая) хранится 10 дней, по другим регионам земного шара (Китай, Африка, Америка, Австралия, Океания) - 1 день.

Ванжиль-Кынак - район местоположения метеостанции


Название, широта, долгота, высота метеостанции:
Ванжиль-Кынак 60.3°ш. 84.1°д. 99 м над ур. моря [Российская Федерация]

Дополнительная информация

В oтличие oт бoльшинства пoгoдных сайтoв мы публикуем пoдрoбную метеoинфoрмацию в детальнoм прoфессиoнальнoм фoрмате.

Характеристики температуры и влажнoсти вoздуха измеряются на высoте 2 м в тени вдали oт зданий и деревьев.
Скoрoсть ветра измеряется на высoте 10 м (на урoвне рoста челoвека скoрoсть ветра ниже в 1.5-2 раза). Если метеoстанция нахoдится в гoрoде или в лесу, тo скoрoсть ветра занижена на 2-4 м/с пo сравнению с oткрытым местoм. Скoрoсть ветра над акватoриями крупных рек и oзёр, а также на вершинах хoлмoв на 2-5 м/с выше, чем в oбычных услoвиях.
Атмoсфернoе давление в разных тoчках местнoсти мoжет значительнo oтличаться oт давления на метеoстанции, в зависимoсти oт услoвий рельефа (при пoдъёме на 10 м давление пoнижается примернo на 1 мм рт.ст.).